EHI
0 0 0 0 0 0 0 0 0 0 0 0 0 0 0 0 0 0 0 0 0 0 0 0 0 0 0 0 0 0 0 0 0 0 0 0 0 0 0 0 0 0 0
0 0 0 0 0 0 0 0 0 0 0 0 0 0 0 0 0 0 0 0 0 0 0 0 0 0 0 0 0 0 0 0 0 0 0 0 0 0 0 0 0 0 0
1 0 0 0 0 0 0 0 0 0 0 0 0 0 0 0 0 0 0 0 0 0 0 0 0 0 0 0 0 0 0 0 0 0 0 0 0 0 0 0 0 0 0
2 1 1 0 0 0 0 0 0 0 0 0 0 0 0 0 0 0 0 0 0 0 0 0 0 0 0 0 0 0 0 0 0 0 0 0 0 0 0 0 0 0 0
3 3 2 1 0 0 0 0 0 0 0 0 0 0 0 0 0 0 0 0 0 0 0 0 0 0 0 0 0 0 0 0 0 0 0 0 0 0 0 0 0 0 0
3 3 3 1 1 0 0 0 0 0 0 0 0 0 0 0 0 0 0 0 0 0 0 0 0 0 0 0 0 0 0 0 0 0 0 0 0 0 0 0 0 0 0
4 4 3 3 2 1 0 0 0 0 0 0 0 0 0 0 0 0 0 0 0 0 0 0 0 0 0 0 0 0 0 0 0 0 0 0 0 0 0 0 0 0 0
4 4 4 3 3 2 1 0 0 0 0 0 0 0 0 0 0 0 0 0 0 0 0 0 0 0 0 0 0 0 0 0 0 0 0 0 0 0 0 0 0 0 0
4 4 4 4 3 3 2 1 0 0 0 0 0 0 0 0 0 0 0 0 0 0 0 0 0 0 0 0 0 0 0 0 0 0 0 0 0 0 0 0 0 0 0
3 3 4 3 3 3 3 1 0 0 0 0 0 0 0 0 0 0 0 0 0 0 0 0 0 0 0 0 0 0 0 0 0 0 0 0 0 0 0 0 0 0 0
3 3 3 3 3 3 3 2 1 0 0 0 0 0 0 0 0 0 0 0 0 0 0 0 0 0 0 0 0 0 0 0 0 0 0 0 0 0 0 0 0 0 0
3 3 3 3 3 3 3 3 1 0 0 0 0 0 0 0 0 0 0 0 0 0 0 0 0 0 0 0 0 0 0 0 0 0 0 0 0 0 0 0 0 0 0
4 4 4 4 4 4 3 3 2 1 0 0 0 0 0 0 0 0 0 0 0 0 0 0 0 0 0 0 0 0 0 0 0 0 0 0 0 0 0 0 0 0 0
3 4 5 5 5 4 4 3 3 2 1 0 0 0 0 0 0 0 0 0 0 0 0 0 0 0 0 0 0 0 0 0 0 0 0 0 0 0 0 0 0 0 0
1 2 3 3 4 4 3 3 3 3 1 0 0 0 0 0 0 0 0 0 0 0 0 0 0 0 0 0 0 0 0 0 0 0 0 0 0 0 0 0 0 0 0
0 0 1 1 2 3 3 3 3 3 2 1 1 0 0 0 0 0 0 0 0 0 0 0 0 0 0 0 0 0 0 0 0 0 0 0 0 0 0 0 0 0 0
0 0 0 0 1 1 2 3 3 3 3 3 2 1 0 0 0 0 0 0 0 0 0 0 0 0 0 0 0 0 0 0 0 0 0 0 0 0 0 0 0 0 0
0 0 0 0 0 0 1 1 2 3 3 3 3 2 1 0 0 0 0 0 0 0 0 0 0 0 0 0 0 0 0 0 0 0 0 0 0 0 0 0 0 0 0
0 0 0 0 0 0 0 0 1 2 3 3 3 3 2 1 0 0 0 0 0 0 0 0 0 0 0 0 0 0 0 0 0 0 0 0 0 0 0 0 0 0 0
0 0 0 0 0 0 0 0 0 1 1 2 3 3 3 2 1 0 0 0 0 0 0 0 0 0 0 0 0 0 0 0 0 0 0 0 0 0 0 0 0 0 0
0 0 0 0 0 0 0 0 0 0 0 1 2 3 3 3 2 1 0 0 0 0 0 0 0 0 0 0 0 0 0 0 0 0 0 0 0 0 0 0 0 0 0
0 0 0 0 0 0 0 0 0 0 0 0 1 2 3 3 3 1 0 0 0 0 0 0 0 0 0 0 0 0 0 0 0 0 0 0 0 0 0 0 0 0 0
0 0 0 0 0 0 0 0 0 0 0 0 0 1 1 2 3 2 1 0 0 0 0 0 0 0 0 0 0 0 0 0 0 0 0 0 0 0 0 0 0 0 0
0 0 0 0 0 0 0 0 0 0 0 0 0 0 0 1 2 3 2 1 0 0 0 0 0 0 0 0 0 0 0 0 0 0 0 0 0 0 0 0 0 0 0
0 0 0 0 0 0 0 0 0 0 0 0 0 0 0 0 1 3 2 1 0 0 0 0 0 0 0 0 0 0 0 0 0 0 0 0 0 0 0 0 0 0 0
0 0 0 0 0 0 0 0 0 0 0 0 0 0 0 0 1 2 2 1 0 0 0 0 0 0 0 0 0 0 0 0 0 0 0 0 0 0 0 0 0 0 0
Wind_Speed
7 6 6 7 6 5 5 5 5 5 4 3 3 2 2 1 2 2 3 3 3 4 4 3 3 3 3 3 4 4 5 3 3 4 4 4 5 4 3 3 4 5 5
5 6 6 6 6 6 5 5 6 5 5 3 3 3 3 1 1 1 2 3 3 3 3 4 3 3 3 4 4 4 3 1 1 3 3 2 3 4 4 3 3 4 3
10 8 7 7 6 6 7 6 6 5 5 5 4 3 3 2 2 2 1 1 2 3 3 4 3 3 3 3 3 3 4 2 0 1 3 3 2 1 3 3 3 3 3
9 8 8 7 7 6 6 6 6 5 5 6 5 5 4 2 2 1 1 1 2 3 3 3 4 3 3 3 2 2 2 3 1 1 1 2 4 3 1 2 3 3 3
10 10 10 9 7 6 6 6 5 5 5 5 6 6 4 3 1 1 2 1 1 2 3 3 3 3 2 2 3 3 3 2 2 2 1 2 2 3 4 2 1 2 3
10 10 9 7 5 5 5 5 6 4 4 5 6 6 6 4 3 2 2 1 1 1 2 3 3 3 2 3 3 3 4 3 3 2 2 2 2 2 3 3 2 1 1
9 9 9 8 7 6 6 6 6 4 4 5 5 5 6 6 6 4 3 3 1 1 1 2 3 3 3 3 3 3 3 3 4 3 2 2 2 2 3 4 2 2 0
9 10 10 9 8 8 7 6 6 5 5 5 4 4 5 4 3 4 4 4 3 2 3 3 3 3 3 4 3 3 3 3 3 3 3 2 2 2 3 4 4 3 1
9 9 9 9 9 8 8 8 7 5 5 5 5 4 4 4 4 4 4 3 3 3 4 4 4 3 3 3 4 3 3 3 3 3 3 2 2 2 2 2 3 5 3
8 9 9 9 8 8 7 7 7 6 5 5 5 4 4 4 4 4 5 4 4 3 4 4 4 3 3 3 4 3 3 4 2 2 3 3 1 2 2 2 2 2 4
9 9 8 8 8 7 7 7 6 6 5 5 4 4 4 4 4 4 4 4 3 4 4 4 4 4 3 3 4 3 3 4 3 2 3 2 2 2 1 2 2 2 3
8 8 8 7 7 7 6 7 6 6 6 5 5 5 4 4 4 4 3 3 3 3 4 5 4 4 4 4 4 4 4 4 3 2 3 2 2 2 1 2 2 2 2
7 6 6 6 7 7 7 7 6 6 5 5 5 5 5 5 5 4 4 4 4 3 3 4 4 4 4 4 4 4 4 4 3 3 3 2 3 2 1 2 2 2 2
7 7 6 6 6 7 7 7 6 6 6 6 5 5 5 6 5 4 4 4 4 4 3 3 3 4 4 4 4 4 4 4 3 3 3 3 4 3 3 2 2 3 3
6 7 7 7 6 6 6 6 6 5 6 6 6 6 5 5 5 5 4 4 4 4 3 3 3 3 3 4 5 5 5 4 3 2 2 2 4 5 4 4 3 4 3
7 7 7 7 7 7 7 6 6 6 6 6 6 6 5 5 5 5 4 4 4 3 3 3 3 2 2 6 8 6 4 4 4 3 2 1 2 3 4 6 7 7 6
6 7 7 8 8 8 8 8 7 6 6 6 6 6 6 6 5 5 5 4 4 3 4 3 3 3 3 6 8 9 5 4 3 3 2 2 2 2 2 3 4 3 5
5 6 6 6 6 6 6 6 6 6 6 6 6 6 6 6 5 5 5 4 3 4 3 3 3 3 3 6 7 8 5 4 3 3 3 3 2 2 4 3 2 1 1
5 5 6 6 6 6 6 6 6 7 7 7 7 7 7 7 6 6 5 4 4 3 3 3 4 4 3 5 7 7 4 3 2 2 3 3 3 4 6 5 3 1 1
3 4 4 4 5 5 6 7 7 7 7 8 7 7 7 8 8 7 5 4 4 4 4 3 3 4 3 5 7 7 3 3 2 1 1 3 5 6 6 5 4 3 2
3 4 5 5 5 5 7 7 7 7 7 6 7 7 7 7 7 6 5 5 5 4 4 4 2 3 3 5 6 6 3 4 3 2 2 2 5 6 6 6 4 5 4
2 3 4 4 4 5 6 6 6 6 5 5 6 7 6 6 5 6 5 5 6 5 4 3 2 1 2 3 5 7 6 5 3 3 3 3 5 5 5 4 4 5 4
2 3 4 4 3 5 6 6 5 4 5 5 5 6 6 5 5 6 6 5 5 4 4 4 3 2 1 2 5 6 7 7 3 3 4 5 5 4 3 4 5 4 2
2 2 4 4 4 4 5 5 4 5 5 5 4 4 5 4 4 4 5 5 6 5 5 5 4 3 2 2 2 2 3 4 3 2 3 4 4 2 2 1 2 2 2
2 2 4 5 5 4 4 3 4 5 5 5 4 4 4 5 4 4 4 6 6 8 8 6 6 5 5 6 7 5 4 4 3 3 1 1 1 1 1 1 1 1 1
2 2 3 5 5 5 4 4 4 6 6 4 4 4 4 3 3 4 2 3 4 7 9 9 8 6 7 7 8 8 7 7 7 4 2 2 3 3 3 3 2 2 3
Wind_Direction
192 177 168 157 149 149 147 140 135 134 127 116 110 101 88 67 59 65 75 74 78 82 86 90 86 92 100 107 111 104 94 87 100 86 63 41 44 54 57 60 65 61 59
176 176 170 162 161 165 164 152 150 151 149 140 138 137 132 119 112 67 61 69 82 85 96 94 97 99 99 96 101 106 105 105 110 113 102 62 24 25 43 50 66 59 51
182 179 174 172 166 169 170 165 165 159 154 140 115 93 72 54 45 39 38 40 87 92 96 103 103 103 107 120 122 122 121 132 58 103 134 136 165 41 17 35 50 53 53
181 177 175 175 176 179 170 161 164 157 155 145 137 137 138 150 185 185 165 66 77 94 98 106 107 106 104 116 126 119 119 130 129 50 63 125 145 139 102 15 22 42 53
182 179 177 179 176 168 161 161 159 157 160 154 150 146 149 165 162 139 120 92 52 80 100 105 106 107 107 112 105 98 94 110 128 127 108 85 73 92 125 129 13 23 22
185 181 176 168 164 160 153 152 155 164 166 158 155 155 160 159 151 150 142 131 86 64 90 103 107 111 112 111 109 103 96 91 90 91 100 122 125 132 124 133 137 91 4
175 171 166 164 163 161 160 158 157 161 165 157 162 168 169 168 171 171 167 157 148 142 138 120 117 115 116 112 106 99 97 99 99 101 99 98 117 132 128 125 132 119 3
173 174 175 173 170 166 163 162 166 167 165 161 167 170 170 173 175 176 170 172 173 176 162 143 130 123 120 116 108 101 103 99 104 103 102 94 89 107 127 137 135 112 41
174 175 175 173 171 171 173 172 167 164 168 170 166 168 174 172 174 173 168 167 170 166 154 143 132 127 126 121 112 103 105 100 96 99 98 96 94 97 104 123 140 140 140
175 175 175 176 175 175 175 170 168 170 170 167 171 170 168 165 165 164 168 172 170 158 149 145 140 136 132 124 114 111 112 104 103 110 100 94 96 94 95 114 114 128 141
178 177 178 178 174 169 169 171 173 168 166 171 170 158 161 157 154 159 169 169 163 160 159 157 152 147 141 135 128 128 124 119 109 101 106 104 107 102 95 101 97 97 115
177 175 174 170 170 170 174 175 177 176 176 172 162 162 158 151 152 159 164 154 149 158 161 154 151 156 151 146 143 141 132 132 130 123 110 113 114 103 99 101 103 108 113
167 165 164 170 175 177 178 177 181 182 175 165 158 156 155 155 159 161 152 141 136 137 142 143 150 157 153 147 148 143 142 144 146 144 140 147 126 117 111 104 108 108 99
171 167 170 177 180 182 181 180 185 180 171 164 160 163 168 168 167 156 147 146 142 140 140 137 147 153 153 150 147 141 140 139 144 154 159 161 155 160 149 132 136 124 108
171 176 179 181 182 183 187 185 182 176 169 164 167 174 171 164 155 146 150 150 148 148 146 133 129 136 152 165 157 150 147 142 140 143 156 165 161 162 159 151 156 143 133
182 182 181 181 185 187 189 187 181 177 166 170 176 171 162 160 157 157 154 147 147 141 132 138 143 148 164 162 162 155 149 153 155 159 164 158 156 160 154 149 152 156 156
186 184 186 189 192 191 188 185 183 170 165 171 172 168 164 163 166 163 153 155 161 152 147 158 151 153 162 154 156 154 144 145 156 163 166 161 138 136 135 137 140 155 165
191 191 190 191 192 187 182 177 168 163 168 173 174 171 166 165 162 159 162 167 163 158 160 164 160 155 165 152 146 149 138 134 151 164 167 160 160 152 147 132 114 110 164
185 192 190 186 180 178 176 165 169 171 174 180 182 180 175 169 167 169 175 173 158 158 163 169 167 167 177 165 153 143 140 141 164 173 166 160 165 164 150 138 141 144 271
168 173 172 166 170 181 169 163 173 175 185 190 187 182 178 175 177 180 178 174 165 170 163 168 176 175 183 176 163 151 146 155 172 180 191 177 176 174 161 156 161 179 220
170 165 158 162 180 178 166 170 177 191 195 186 179 178 182 182 181 176 170 164 163 159 160 165 179 185 188 185 175 162 155 174 177 187 209 219 187 178 174 169 180 193 182
160 156 155 170 176 167 163 169 188 194 176 169 175 179 181 183 177 168 169 164 158 157 164 161 176 214 214 198 192 184 178 170 178 201 207 203 179 173 176 180 185 180 161
172 166 160 165 170 169 167 175 191 170 158 160 176 181 178 179 171 169 169 167 166 167 178 173 186 216 229 218 204 195 186 177 181 203 194 186 180 177 187 192 181 169 157
180 170 157 161 179 182 178 179 172 159 155 162 172 173 171 173 169 174 174 175 179 179 185 188 195 206 215 214 204 200 190 187 195 200 192 186 179 177 178 174 183 181 176
198 173 171 176 184 181 179 167 159 155 156 164 166 173 176 176 173 179 189 191 197 191 190 197 192 191 212 220 203 191 194 193 191 158 121 117 157 193 208 208 207 197 191
194 187 179 178 180 175 174 170 164 162 161 168 173 174 174 177 176 174 187 212 203 202 201 198 191 204 209 201 200 201 197 190 173 151 170 193 201 206 207 209 217 211 212